Find Starlink 35677

NORAD ID: 66220 Int'l Des: 2025-244 Owner: SPXS Country: US Constellation: starlink operational
LEOCIRCULAR

当前视图

正在加载3D地球...

About Starlink 35677

Starlink 35677 (NORAD 66220) is a starlink constellation satellite (v2 mini) launched Oct 28, 2025 by SPXS of US. It operates in LEO, CIRCULAR orbit with a mass of 575.00 kg.

即将过境

Passes for default location (London). Set your location on the main map for personalized predictions.

高度历史

Loading altitude history...

两行轨道根数

1 66220U 25244Q 26222.18443231 .00004462 00000-0 14316-3 0 9997
2 66220 53.1564 234.5770 0001331 114.5926 245.5215 15.34393276 45192
Epoch: Aug 10, 2026 • Age: 6 hours

当前状态

高度 481.2 km
远地点 / 近地点 N/A
速度 7.62 km/s
星下点 -50.93°S, 52.61°E
发射日期 Oct 28, 2025
运行时间 0.7 years
类型 internet

技术详情

分类 Payload
质量 575.00 kg
干质量 530.00 kg
总质量 575.00 kg
长度 0.30 m
直径 4.10 m
跨度 29.00 m
形状 Box + pan
制造商 SPXS
平台类型 Starlink V2MO
阶段状态 In Orbit
所有者/国家 SPXS/US

Most Searched